This is the latest recevied weather packets stored in our database for station/object OK1OBR-13. If no packets are shown the sender has not sent any weather packets the latest 1 day(s).
| Time | Temp. | Humidity | Pressure | Rain* | Wind** | Luminosity | Snow |
|---|---|---|---|---|---|---|---|
| 1778014801 | 14.44° C | 61% | 927.5 hPa | 0 mm | 0.89 m/s, 127° | - | - |
| 1778014740 | 14.44° C | 61% | 927.5 hPa | 0 mm | 0.89 m/s, 150° | - | - |
| 1778014681 | 15° C | 61% | 927.5 hPa | 0 mm | 1.34 m/s, 164° | - | - |
| 1778014621 | 15° C | 61% | 927.4 hPa | 0 mm | 1.34 m/s, 144° | - | - |
| 1778014562 | 15° C | 61% | 927.5 hPa | 0 mm | 0.89 m/s, 128° | - | - |
| 1778014501 | 15° C | 60% | 927.5 hPa | 0 mm | 1.34 m/s, 123° | - | - |
| 1778014441 | 15° C | 60% | 927.6 hPa | 0 mm | 1.79 m/s, 127° | - | - |
| 1778014381 | 15° C | 61% | 927.5 hPa | 0 mm | 1.79 m/s, 121° | - | - |
| 1778014322 | 15° C | 61% | 927.6 hPa | 0 mm | 1.79 m/s, 148° | - | - |
| 1778014261 | 15° C | 61% | 927.6 hPa | 0 mm | 1.34 m/s, 147° | - | - |
| 1778014201 | 15° C | 61% | 927.6 hPa | 0 mm | 1.34 m/s, 143° | - | - |
| 1778014141 | 15° C | 61% | 927.5 hPa | 0 mm | 1.34 m/s, 130° | - | - |
| 1778014081 | 15° C | 61% | 927.5 hPa | 0 mm | 0.89 m/s, 141° | - | - |
| 1778014021 | 15° C | 60% | 927.6 hPa | 0 mm | 0.89 m/s, 145° | - | - |
| 1778013961 | 15° C | 60% | 927.5 hPa | 0 mm | 0.89 m/s, 140° | - | - |
| 1778013902 | 15° C | 60% | 927.6 hPa | 0 mm | 1.79 m/s, 125° | - | - |
| 1778013841 | 15° C | 60% | 927.6 hPa | 0 mm | 1.79 m/s, 122° | - | - |
| 1778013781 | 15° C | 60% | 927.7 hPa | 0 mm | 1.34 m/s, 140° | - | - |
| 1778013722 | 15° C | 60% | 927.7 hPa | 0 mm | 0.89 m/s, 145° | - | - |
| 1778013661 | 15° C | 60% | 927.7 hPa | 0 mm | 0.89 m/s, 146° | - | - |
| 1778013601 | 15° C | 60% | 927.5 hPa | 0 mm | 0.89 m/s, 148° | - | - |
| 1778013542 | 15° C | 60% | 927.5 hPa | 0 mm | 0.89 m/s, 136° | - | - |
| 1778013481 | 15° C | 60% | 927.5 hPa | 0 mm | 0.89 m/s, 136° | - | - |
| 1778013421 | 15° C | 60% | 927.6 hPa | 0 mm | 0.89 m/s, 147° | - | - |
| 1778013361 | 15° C | 60% | 927.4 hPa | 0 mm | 1.34 m/s, 155° | - | - |
* Rain since midnight (hover to see other rain measurements)
** Current wind speed in m/s (hover to see current wind gust speed)